Weather History for Raton, NM

Change the Weather History Date:

Tuesday, March 26, 2013

  Actual Average (KTAD) Record (KTAD)
Temperature  
Mean Temperature 38 °F 44 °F  
Max Temperature 63 °F 60 °F 85 °F (1971)
Min Temperature 15 °F 29 °F 2 °F (1955)
Degree Days  
Heating Degree Days 26 21  
Month to date heating degree days 608  
Since 1 July heating degree days 4730  
Cooling Degree Days 0 0  
Month to date cooling degree days 0  
Year to date cooling degree days 0  
Moisture  
Dew Point 12 °F    
Average Humidity 43    
Maximum Humidity 80    
Minimum Humidity 14    
Precipitation  
Precipitation 0.00 in 0.03 in 0.24 in (2005)
Month to date precipitation 0.73  
Year to date precipitation 1.62  
Sea Level Pressure  
Sea Level Pressure 30.08 in    
Wind  
Wind Speed 7 mph (SW)    
Max Wind Speed 26 mph    
Max Gust Speed 33 mph    
Visibility 10 miles    
Events      
T = Trace of Precipitation, MM = Missing Value Source: NWS Daily Summary

Daily Weather History Graph

Daily Weather History Graph

Search for Another Location

Airport:

Trip Planner

Search our weather history database for the weather conditions in past years. The results will help you decide how hot, cold, wet, or windy it might be!

Date:

Astronomy

Mar. 26, 2013 Rise Set
Actual Time 6:52 AM MDT 7:15 PM MDT
Civil Twilight 6:26 AM MDT 7:41 PM MDT
Nautical Twilight 5:56 AM MDT 8:11 PM MDT
Astronomical Twilight 5:25 AM MDT 8:42 PM MDT
Moon 6:54 PM MDT (3/26) 6:09 AM MDT (3/26)
Length of Visible Light 13h 14m
Length of Day
12h 23m
Waxing Gibbous, 99% of the Moon is Illuminated
Mar 26
Waxing Gibbous
Mar 27
Full
Apr 2
Last Quarter
Apr 10
New
Apr 18
First Quarter

Hourly Weather History & Observations

Time (MDT) Temp. Windchill Dew Point Humidity Pressure Visibility Wind Dir Wind Speed Gust Speed Precip Events Conditions
12:53 AM 21.9 °F 13.4 °F 14.0 °F 72% 30.32 in 10.0 mi WSW 6.9 mph - N/A   Clear
1:53 AM 19.9 °F 11.1 °F 12.9 °F 74% 30.29 in 10.0 mi WSW 6.9 mph - N/A   Clear
2:53 AM 21.0 °F 16.2 °F 12.0 °F 68% 30.26 in 10.0 mi SSW 3.5 mph - N/A   Clear
3:53 AM 18.0 °F 12.7 °F 10.9 °F 74% 30.25 in 10.0 mi WNW 3.5 mph - N/A   Clear
4:53 AM 17.1 °F 10.0 °F 10.9 °F 77% 30.22 in 10.0 mi NNW 4.6 mph - N/A   Clear
5:53 AM 15.1 °F - 10.0 °F 80% 30.23 in 10.0 mi Calm Calm - N/A   Clear
6:53 AM 17.1 °F 7.6 °F 10.0 °F 74% 30.23 in 10.0 mi North 6.9 mph - N/A   Clear
7:53 AM 21.9 °F 15.7 °F 15.1 °F 75% 30.24 in 10.0 mi North 4.6 mph - N/A   Clear
8:53 AM 27.0 °F - 10.9 °F 51% 30.21 in 10.0 mi Calm Calm - N/A   Clear
9:53 AM 30.0 °F 24.1 °F 10.9 °F 45% 30.21 in 10.0 mi SSE 5.8 mph - N/A   Clear
10:53 AM 34.0 °F 31.0 °F 12.0 °F 40% 30.17 in 10.0 mi Variable 3.5 mph - N/A   Clear
11:53 AM 39.9 °F - 12.0 °F 32% 30.13 in 10.0 mi Calm Calm - N/A   Clear
12:53 PM 46.0 °F 44.8 °F 12.9 °F 26% 30.08 in 10.0 mi Variable 3.5 mph - N/A   Clear
1:53 PM 53.1 °F - 14.0 °F 21% 30.01 in 10.0 mi South 5.8 mph - N/A   Clear
2:53 PM 61.0 °F - 12.9 °F 15% 29.91 in 10.0 mi SSW 17.3 mph 24.2 mph N/A   Clear
3:53 PM 61.0 °F - 10.9 °F 14% 29.88 in 10.0 mi SW 21.9 mph 33.4 mph N/A   Clear
4:53 PM 62.1 °F - 12.0 °F 14% 29.87 in 10.0 mi SW 26.5 mph 33.4 mph N/A   Clear
5:53 PM 59.0 °F - 10.9 °F 15% 29.90 in 10.0 mi SW 19.6 mph 26.5 mph N/A   Partly Cloudy
6:53 PM 55.9 °F - 12.0 °F 18% 29.90 in 10.0 mi WSW 15.0 mph - N/A   Partly Cloudy
7:53 PM 45.0 °F 40.6 °F 14.0 °F 29% 29.94 in 10.0 mi SW 8.1 mph - N/A   Partly Cloudy
8:53 PM 46.0 °F 40.6 °F 14.0 °F 28% 29.93 in 10.0 mi WSW 11.5 mph - N/A   Clear
9:53 PM 44.1 °F 38.6 °F 14.0 °F 30% 29.94 in 10.0 mi West 10.4 mph - N/A   Clear
10:53 PM 39.9 °F 35.8 °F 14.0 °F 35% 29.96 in 10.0 mi South 5.8 mph - N/A   Clear
11:53 PM 37.9 °F 33.5 °F 12.0 °F 35% 29.95 in 10.0 mi South 5.8 mph - N/A   Clear